Date String (YYYY-MM-DD hh:mm:ss) UTC,Instrument flags,absolute air pressure of the measurement (hPa),sample flow rate (lpm),inlet stack bypass flow (lpm),air temperature of the measurement (°C),ambient temperature measured by the external sensor (°C),aerosol sample conditioner tube jacket temperature (°C),OPC LED temperature (°C),internal box temperature (°C),relative humidity of the measurement (%),span deviation,mass concentration of particles derived from Lorenz-Mie calculation of OPC scattering (μg/m³),mass concentration of particles derived from Lorenz-Mie calculation of OPC scattering (μg/m³),mass concentration of particles derived from Lorenz-Mie calculation of OPC scattering (μg/m³)
DateTimeUTC,F1_M11,P_M11,Q1_M11,Q2_M11,T1_M11,T2_M11,T3_M11,T4_M11,T5_M11,U1_M11,ZSPAN_M11,X0_M11,X2_M11,X1_M11
2024-01-21 17:00:00,SystemResetWarning,0823.1,5.00,000.00,020.0,019.4,000.0,028.4,021.4,17.6,0000.0,0003.52,0001.50,0001.28
2024-01-21 17:01:00,SystemResetWarning,0823.0,5.01,000.00,020.0,019.4,000.0,028.4,021.4,17.9,0000.0,0004.24,0002.02,0001.77
2024-01-21 17:02:00,SystemResetWarning,0822.6,5.00,000.00,020.1,019.4,000.0,028.4,021.4,18.0,0000.0,0004.73,0002.44,0002.16
2024-01-21 17:03:00,SystemResetWarning,0822.7,5.01,000.00,020.1,019.5,000.0,028.4,021.4,17.5,0000.0,0005.18,0002.72,0002.37
2024-01-21 17:04:00,SystemResetWarning,0822.7,5.00,000.00,020.1,019.5,000.0,028.4,021.4,17.7,0000.0,0005.52,0002.87,0002.49
2024-01-21 17:05:00,SystemResetWarning,0822.8,4.99,000.00,020.1,019.5,000.0,028.4,021.4,17.9,0000.0,0005.77,0003.00,0002.61
2024-01-21 17:06:00,SystemResetWarning,0822.7,4.99,000.00,020.1,019.5,000.0,028.4,021.4,18.0,0000.0,0005.91,0003.08,0002.67
2024-01-21 17:07:00,SystemResetWarning,0822.7,5.00,000.00,020.1,019.5,000.0,028.4,021.3,18.2,0000.0,0005.78,0003.13,0002.74
2024-01-21 17:08:00,SystemResetWarning,0822.7,5.00,000.00,020.1,019.5,000.0,028.4,021.3,18.4,0000.0,0005.77,0003.16,0002.78
2024-01-21 17:09:00,SystemResetWarning,0823.0,5.00,000.00,020.1,019.4,000.0,028.4,021.3,18.2,0000.0,0005.90,0003.20,0002.85
2024-01-21 17:10:00,SystemResetWarning,0822.8,5.01,000.00,020.1,019.4,000.0,028.4,021.3,17.5,0000.0,0006.11,0003.31,0003.03
2024-01-21 17:11:00,SystemResetWarning,0822.6,5.00,000.00,020.1,019.4,000.0,028.4,021.3,17.7,0000.0,0005.47,0003.31,0003.01
2024-01-21 17:12:00,SystemResetWarning,0822.8,5.00,000.00,020.1,019.4,000.0,028.4,021.3,17.8,0000.0,0005.02,0003.09,0002.63
2024-01-21 17:13:00,SystemResetWarning,0822.8,5.00,000.00,020.1,019.4,000.0,028.4,021.3,17.8,0000.0,0004.69,0002.78,0002.28
2024-01-21 17:14:00,SystemResetWarning,0822.9,4.99,000.00,020.0,019.4,000.0,028.4,021.3,17.6,0000.0,0004.39,0002.55,0002.09
2024-01-21 17:15:00,SystemResetWarning,0822.8,5.00,000.00,020.1,019.4,000.0,028.4,021.3,17.5,0000.0,0004.17,0002.43,0002.00
2024-01-21 17:16:00,SystemResetWarning,0822.6,5.01,000.00,020.1,019.4,000.0,028.4,021.4,17.7,0000.0,0004.03,0002.40,0001.97
2024-01-21 17:17:00,SystemResetWarning,0822.7,5.01,000.00,020.1,019.4,000.0,028.4,021.4,17.2,0000.0,0004.11,0002.45,0001.98
2024-01-21 17:18:00,SystemResetWarning,0822.6,5.01,000.00,020.1,019.5,000.0,028.4,021.4,17.2,0000.0,0004.29,0002.55,0002.01
2024-01-21 17:19:00,SystemResetWarning,0822.6,4.99,000.00,020.1,019.5,000.0,028.4,021.4,17.3,0000.0,0004.69,0002.60,0002.03
2024-01-21 17:20:00,SystemResetWarning,0822.8,4.99,000.00,020.1,019.5,000.0,028.4,021.4,17.2,0000.0,0005.09,0002.57,0002.01
2024-01-21 17:21:00,SystemResetWarning,0822.6,4.99,000.00,020.1,019.5,000.0,028.4,021.4,17.1,0000.0,0004.85,0002.38,0001.84
2024-01-21 17:22:00,SystemResetWarning,0822.7,5.00,000.00,020.1,019.5,000.0,028.4,021.4,17.0,0000.0,0004.56,0002.19,0001.66
2024-01-21 17:23:00,SystemResetWarning,0822.7,5.00,000.00,020.1,019.5,000.0,028.4,021.4,17.0,0000.0,0003.79,0002.00,0001.52
2024-01-21 17:24:00,SystemResetWarning,0822.7,5.00,000.00,020.1,019.5,000.0,028.5,021.4,16.8,0000.0,0004.07,0001.92,0001.47
2024-01-21 17:25:00,SystemResetWarning,0822.7,5.01,000.00,020.1,019.6,000.0,028.5,021.4,16.9,0000.0,0004.05,0001.84,0001.40
2024-01-21 17:26:00,SystemResetWarning,0823.0,5.00,000.00,020.1,019.6,000.0,028.5,021.5,16.7,0000.0,0003.99,0001.84,0001.41
2024-01-21 17:27:00,SystemResetWarning,0823.1,5.00,000.00,020.1,019.6,000.0,028.5,021.5,16.9,0000.0,0004.50,0001.87,0001.46
2024-01-21 17:28:00,SystemResetWarning,0823.1,5.00,000.00,020.1,019.6,000.0,028.5,021.5,16.9,0000.0,0004.99,0001.89,0001.52
2024-01-21 17:29:00,SystemResetWarning,0823.1,5.00,000.00,020.2,019.6,000.0,028.5,021.5,16.9,0000.0,0005.05,0002.00,0001.69
2024-01-21 17:30:00,SystemResetWarning,0822.9,5.00,000.00,020.2,019.6,000.0,028.5,021.5,17.1,0000.0,0005.36,0002.24,0001.89
2024-01-21 17:31:00,SystemResetWarning,0823.1,5.00,000.00,020.2,019.6,000.0,028.5,021.5,17.0,0000.0,0004.95,0002.43,0002.08
2024-01-21 17:32:00,SystemResetWarning,0823.0,4.99,000.00,020.2,019.6,000.0,028.5,021.5,16.9,0000.0,0005.24,0002.60,0002.21
2024-01-21 17:33:00,SystemResetWarning,0823.1,5.00,000.00,020.2,019.6,000.0,028.5,021.5,17.0,0000.0,0005.49,0002.76,0002.37
2024-01-21 17:34:00,SystemResetWarning,0822.8,5.00,000.00,020.2,019.6,000.0,028.5,021.6,16.9,0000.0,0005.69,0002.89,0002.52
2024-01-21 17:35:00,SystemResetWarning,0822.6,5.00,000.00,020.2,019.6,000.0,028.5,021.6,17.0,0000.0,0005.57,0003.05,0002.65
2024-01-21 17:36:00,SystemResetWarning,0822.5,5.00,000.00,020.2,019.6,000.0,028.5,021.6,16.5,0000.0,0005.65,0003.17,0002.79
2024-01-21 17:37:00,SystemResetWarning,0822.5,5.01,000.00,020.2,019.7,000.0,028.5,021.6,16.7,0000.0,0005.87,0003.24,0002.90
2024-01-21 17:38:00,SystemResetWarning,0822.7,5.00,000.00,020.3,019.7,000.0,028.6,021.6,16.9,0000.0,0005.75,0003.28,0002.96
2024-01-21 17:39:00,SystemResetWarning,0822.7,5.00,000.00,020.3,019.7,000.0,028.6,021.6,17.0,0000.0,0004.99,0003.29,0002.98
2024-01-21 17:40:00,SystemResetWarning,0822.4,5.00,000.00,020.3,019.7,000.0,028.6,021.7,16.8,0000.0,0005.00,0003.26,0002.90
2024-01-21 17:41:00,SystemResetWarning,0822.6,5.00,000.00,020.3,019.7,000.0,028.6,021.7,16.6,0000.0,0006.23,0003.16,0002.77
2024-01-21 17:42:00,SystemResetWarning,0822.4,5.00,000.00,020.3,019.8,000.0,028.6,021.7,16.8,0000.0,0006.13,0003.06,0002.63
2024-01-21 17:43:00,SystemResetWarning,0822.5,5.00,000.00,020.3,019.8,000.0,028.6,021.7,16.9,0000.0,0006.23,0003.00,0002.58
2024-01-21 17:44:00,SystemResetWarning,0822.4,5.00,000.00,020.3,019.8,000.0,028.6,021.7,17.0,0000.0,0006.13,0002.95,0002.52
2024-01-21 17:45:00,SystemResetWarning,0822.4,4.99,000.00,020.3,019.8,000.0,028.6,021.7,16.9,0000.0,0006.02,0002.88,0002.43
2024-01-21 17:46:00,SystemResetWarning,0822.4,5.00,000.00,020.3,019.8,000.0,028.6,021.7,17.0,0000.0,0005.97,0002.83,0002.36
2024-01-21 17:47:00,SystemResetWarning,0822.4,5.00,000.00,020.3,019.8,000.0,028.6,021.7,16.9,0000.0,0005.64,0002.66,0002.26
2024-01-21 17:48:00,SystemResetWarning,0822.4,5.00,000.00,020.3,019.8,000.0,028.6,021.7,16.7,0000.0,0005.50,0002.58,0002.19
2024-01-21 17:49:00,SystemResetWarning,0822.4,5.00,000.00,020.3,019.8,000.0,028.6,021.7,16.7,0000.0,0005.60,0002.54,0002.14
2024-01-21 17:50:00,SystemResetWarning,0822.4,5.00,000.00,020.3,019.8,000.0,028.7,021.7,16.8,0000.0,0005.92,0002.55,0002.09
2024-01-21 17:51:00,SystemResetWarning,0822.4,5.01,000.00,020.4,019.8,000.0,028.7,021.7,16.8,0000.0,0005.81,0002.47,0002.02
2024-01-21 17:52:00,SystemResetWarning,0822.4,4.99,000.00,020.4,019.8,000.0,028.7,021.7,16.9,0000.0,0004.31,0002.39,0001.96
2024-01-21 17:53:00,SystemResetWarning,0822.4,4.99,000.00,020.4,019.8,000.0,028.7,021.7,16.9,0000.0,0004.02,0002.36,0001.92
2024-01-21 17:54:00,SystemResetWarning,0822.4,5.00,000.00,020.4,019.9,000.0,028.7,021.7,17.0,0000.0,0003.81,0002.33,0001.88
2024-01-21 17:55:00,SystemResetWarning,0822.4,5.01,000.00,020.4,019.9,000.0,028.7,021.8,16.8,0000.0,0003.72,0002.27,0001.82
2024-01-21 17:56:00,SystemResetWarning,0822.4,5.00,000.00,020.4,019.9,000.0,028.7,021.8,16.9,0000.0,0003.69,0002.16,0001.75
2024-01-21 17:57:00,SystemResetWarning,0822.4,4.99,000.00,020.4,019.9,000.0,028.7,021.8,17.1,0000.0,0003.66,0002.00,0001.64
2024-01-21 17:58:00,SystemResetWarning,0822.4,4.99,000.00,020.4,019.9,000.0,028.7,021.8,16.9,0000.0,0003.62,0001.90,0001.54
2024-01-21 17:59:00,SystemResetWarning,0822.3,5.00,000.00,020.4,019.9,000.0,028.7,021.8,16.7,0000.0,0005.57,0001.92,0001.52
